Waarnemingen

Advertentie
Mijn weer
Pajala A, Zweden (2095): temperatuur & dauwpunt: 01.08.2020 23:00:00 - 07.08.2020 23:00:00 (CEST)Pajala A, Zweden (2095): windsnelheid & windstoten: 01.08.2020 23:00:00 - 07.08.2020 23:00:00 (CEST)Pajala A, Zweden (2095): windrichting: 01.08.2020 23:00:00 - 07.08.2020 23:00:00 (CEST)Pajala A, Zweden (2095): luchtdruk: 01.08.2020 23:00:00 - 07.08.2020 23:00:00 (CEST)Pajala A, Zweden (2095): zicht: 01.08.2020 23:00:00 - 07.08.2020 23:00:00 (CEST)Pajala A, Zweden (2095): neerslag: 01.08.2020 23:00:00 - 07.08.2020 23:00:00 (CEST)
Datum & Tijd tt [°C] td [°C] ff [km/u] ff [kn] fx [km/u] fx [kn] dd ppp [hPa] vv [km] rr [mm]
07.08.2020 23:00:00 13,9 13,3 0 0 4 2 N 1021,8 26 0,0
07.08.2020 22:00:00 15,8 14,5 3 2 8 4 ZZW 1021,7 4,6 0,0
07.08.2020 21:00:00 17,8 14,5 3 2 5 3 ZZW 1021,4 50 0,0
07.08.2020 20:00:00 19,5 14,3 2 1 11 6 Z 1021,1 49 0,0
07.08.2020 19:00:00 21,4 10,8 6 3 11 6 ZW 1020,9 43 0,0
07.08.2020 18:00:00 23,3 11,0 4 2 8 5 ZW 1020,9 50 0,0
07.08.2020 17:00:00 22,6 12,2 3 2 16 9 WZW 1021,1 43 0,0
07.08.2020 16:00:00 20,7 11,1 5 3 19 10 WNW 1021,2 50 0,0
07.08.2020 15:00:00 21,5 10,3 8 5 22 12 W 1021,2 12 0,0
07.08.2020 14:00:00 21,3 10,8 11 6 20 11 ZW 1021,4 18 0,0
07.08.2020 13:00:00 21,5 9,7 7 4 18 10 W 1021,2 13 0,0
07.08.2020 12:00:00 20,1 11,0 6 3 16 9 WNW 1021,3 17 0,0
07.08.2020 11:00:00 20,6 11,0 6 4 16 8 NW 1021,2 11 0,0
07.08.2020 10:00:00 19,4 10,9 7 4 12 7 NW 1021,2 46 0,0
07.08.2020 09:00:00 17,9 11,0 8 4 16 8 W 1021,1 50 0,0
07.08.2020 08:00:00 17,1 11,6 7 4 17 9 WNW 1021,0 35 0,0
07.08.2020 07:00:00 16,7 11,8 5 3 10 5 WZW 1020,7 12 0,0
07.08.2020 06:00:00 14,2 11,9 0 0 7 4 N 1020,6 3,9 0,0
07.08.2020 05:00:00 12,8 11,4 4 2 12 7 NO 1020,5 11 0,0
07.08.2020 04:00:00 11,0 10,5 7 4 11 6 ZZW 1020,1 11 0,0
07.08.2020 03:00:00 13,0 11,1 3 2 16 9 WZW 1019,8 36 0,0
07.08.2020 02:00:00 13,4 11,3 2 1 12 7 ZZW 1019,2 50 0,0
07.08.2020 01:00:00 14,5 11,5 9 5 20 11 ZZW 1019,0 50 0,0
07.08.2020 00:00:00 15,0 11,2 10 6 25 13 ZZW 1018,7 42 0,0
06.08.2020 23:00:00 15,1 10,3 11 6 21 11 ZZW 1018,4 50 0,0
06.08.2020 22:00:00 16,1 10,0 9 5 19 10 Z 1017,9 46 0,0
06.08.2020 21:00:00 17,6 10,9 12 6 23 13 Z 1017,4 50 0,0
06.08.2020 20:00:00 18,2 10,1 8 4 20 11 Z 1016,8 50 0,0
06.08.2020 19:00:00 20,0 9,3 10 5 22 12 ZZW 1016,6 50 0,0
06.08.2020 18:00:00 21,0 9,6 10 5 25 13 Z 1016,2 43 0,0
06.08.2020 17:00:00 21,5 9,1 11 6 27 14 ZZW 1016,0 42 0,0
06.08.2020 16:00:00 21,6 7,4 12 6 24 13 ZZW 1015,6 47 0,0
06.08.2020 15:00:00 21,9 8,1 12 6 22 12 ZZW 1015,4 48 0,0
06.08.2020 14:00:00 21,8 7,2 10 6 21 11 ZZW 1015,1 39 0,0
06.08.2020 13:00:00 20,7 5,9 10 6 20 11 Z 1014,8 43 0,0
06.08.2020 12:00:00 21,4 9,3 8 5 21 12 ZZW 1014,5 44 0,0
06.08.2020 11:00:00 20,0 8,0 10 6 17 9 ZW 1014,3 11 0,0
06.08.2020 10:00:00 18,9 10,5 6 3 11 6 Z 1014,0 10 0,0
06.08.2020 09:00:00 16,6 10,4 5 3 8 4 N 1013,8 10 0,0
06.08.2020 08:00:00 15,7 10,7 2 1 5 3 ONO 1013,2 49 0,0
06.08.2020 07:00:00 12,9 9,7 3 2 6 3 ZZW 1013,0 50 0,0
06.08.2020 06:00:00 9,9 9,6 3 1 9 5 ZZO 1012,7 47 0,0
06.08.2020 05:00:00 5,0 4,4 3 1 7 4 N 1012,7 32 0,0
06.08.2020 04:00:00 3,0 2,7 5 3 8 5 ZZW 1012,3 44 0,0
06.08.2020 03:00:00 4,1 3,8 3 1 5 3 WZW 1011,5 33 0,0
06.08.2020 02:00:00 6,7 6,6 5 3 8 5 W 1011,2 39 0,0
06.08.2020 01:00:00 7,2 6,9 2 1 8 5 WZW 1010,6 32 0,0
06.08.2020 00:00:00 8,6 8,0 4 2 7 4 ZZW 1009,9 10 0,0
05.08.2020 23:00:00 11,0 10,4 4 2 7 4 ZZW 1009,3 8 0,0
05.08.2020 22:00:00 11,1 10,3 3 2 6 3 OZO 1008,9 9 0,0
05.08.2020 21:00:00 12,6 11,2 4 2 10 5 WZW 1008,3 16 0,0
05.08.2020 20:00:00 17,2 11,5 5 3 9 5 NNW 1007,8 24 0,0
05.08.2020 19:00:00 17,5 10,4 6 3 19 10 WZW 1007,1 31 0,0
05.08.2020 18:00:00 18,2 10,8 9 5 25 13 ZZW 1006,6 15 0,0
05.08.2020 17:00:00 18,5 10,3 9 5 19 10 WZW 1006,3 28 0,0
05.08.2020 16:00:00 17,7 11,5 8 5 18 10 ZW 1006,1 15 0,0
05.08.2020 15:00:00 17,2 13,7 5 3 9 5 ZZW 1006,0 15 0,0
05.08.2020 14:00:00 15,4 13,9 4 2 28 15 WZW 1005,9 17 1,2
05.08.2020 13:00:00 17,8 12,0 9 5 17 9 W 1005,4 42 0,0
05.08.2020 12:00:00 16,6 12,6 11 6 16 9 N 1005,1 50 0,0
05.08.2020 11:00:00 16,5 12,3 10 5 16 9 NW 1005,4 28 0,0
05.08.2020 10:00:00 15,9 13,0 8 4 11 6 N 1005,2 10 0,0
05.08.2020 09:00:00 14,8 12,1 3 1 8 5 ZW 1005,3 13 0,0
05.08.2020 08:00:00 13,8 12,4 4 2 9 5 ZZO 1005,3 10 0,0
05.08.2020 07:00:00 13,1 12,5 5 3 9 5 ZZO 1005,0 12 0,0
05.08.2020 06:00:00 12,2 12,0 2 1 4 2 ZO 1005,0 7 0,4
05.08.2020 05:00:00 10,4 10,2 0 0 6 3 N 1005,1 7 0,2
05.08.2020 04:00:00 10,5 10,3 2 1 - - OZO 1004,9 5 0,0
05.08.2020 03:00:00 9,6 9,3 3 2 6 4 OZO 1004,8 6 0,1
05.08.2020 02:00:00 9,0 8,7 4 2 6 3 ZO 1004,7 9 0,0
05.08.2020 01:00:00 8,8 8,3 2 1 4 2 ONO 1004,4 4,5 0,0
05.08.2020 00:00:00 11,8 11,2 2 1 10 5 ZO 1004,1 9 0,0
04.08.2020 23:00:00 13,2 12,4 6 3 9 5 Z 1003,9 25 0,0
04.08.2020 22:00:00 14,7 13,4 5 3 16 8 ZZO 1003,7 16 0,0
04.08.2020 21:00:00 15,8 14,0 9 5 19 10 ZZO 1003,4 7 0,0
04.08.2020 20:00:00 16,1 14,1 6 3 14 8 ZO 1003,2 12 0,0
04.08.2020 19:00:00 15,8 13,3 4 2 15 8 OZO 1003,1 10 0,0
04.08.2020 18:00:00 15,1 11,7 7 4 27 15 O 1003,0 19 0,0
04.08.2020 17:00:00 16,0 11,4 14 8 28 15 ZZO 1002,9 50 0,0
04.08.2020 16:00:00 19,2 10,2 11 6 26 14 WZW 1002,1 49 0,0
04.08.2020 15:00:00 19,0 10,5 9 5 22 12 Z 1002,1 50 0,0
04.08.2020 14:00:00 19,2 8,5 9 5 22 12 ZZO 1002,1 43 0,0
04.08.2020 13:00:00 18,5 9,3 9 5 18 10 ZW 1002,1 50 0,0
04.08.2020 12:00:00 19,2 9,1 8 5 22 12 ZZO 1002,2 50 0,0
04.08.2020 11:00:00 18,0 5,9 10 6 18 10 ZZO 1002,4 43 0,0
04.08.2020 10:00:00 17,6 7,1 11 6 19 11 ZO 1002,4 50 0,0
04.08.2020 09:00:00 17,4 10,5 6 3 9 5 ONO 1002,4 44 0,0
04.08.2020 08:00:00 14,6 9,2 3 2 - - NO 1002,7 40 0,0
04.08.2020 07:00:00 11,9 8,7 3 2 6 3 ONO 1003,0 35 0,0
04.08.2020 06:00:00 7,6 7,2 0 0 3 2 N 1003,3 37 0,0
04.08.2020 05:00:00 2,3 1,7 0 0 3 2 N 1003,9 35 0,0
04.08.2020 04:00:00 0,1 -0,3 3 2 5 3 WZW 1004,0 32 0,0
04.08.2020 03:00:00 0,6 0,2 2 1 5 3 ZZO 1004,0 28 0,0
04.08.2020 02:00:00 1,2 0,6 0 0 6 3 N 1004,0 35 0,0
04.08.2020 01:00:00 2,3 1,7 3 2 4 2 ZW 1003,7 24 0,0
04.08.2020 00:00:00 3,8 3,1 0 0 4 2 N 1003,6 29 0,0
03.08.2020 23:00:00 5,7 5,0 2 1 3 2 WZW 1003,3 29 0,0
03.08.2020 22:00:00 8,1 6,9 0 0 3 1 N 1003,1 42 0,0
03.08.2020 21:00:00 11,7 8,5 0 0 7 4 N 1002,8 18 0,0
03.08.2020 20:00:00 16,8 7,4 5 3 9 5 OZO 1002,4 50 0,0
03.08.2020 19:00:00 17,9 6,7 5 3 10 5 O 1002,2 47 0,0
03.08.2020 18:00:00 16,9 8,3 4 2 13 7 Z 1002,5 50 0,0
03.08.2020 17:00:00 19,3 4,6 5 3 12 7 ZZO 1002,5 29 0,0
03.08.2020 16:00:00 19,7 3,8 6 3 - - WZW 1002,8 38 0,0
03.08.2020 15:00:00 19,4 6,2 4 2 12 7 ZZO 1003,2 35 0,0
03.08.2020 14:00:00 18,4 6,3 9 5 16 9 NO 1003,5 37 0,0
03.08.2020 13:00:00 17,9 6,4 8 4 14 7 ONO 1004,0 30 0,0
03.08.2020 12:00:00 17,1 5,7 5 3 13 7 NO 1004,2 34 0,0
03.08.2020 11:00:00 16,9 6,1 3 2 12 6 N 1004,6 45 0,0
03.08.2020 10:00:00 16,1 7,1 5 3 10 6 O 1005,0 37 0,0
03.08.2020 09:00:00 15,1 8,3 3 1 8 5 O 1005,7 45 0,0
03.08.2020 08:00:00 13,3 9,2 2 1 6 3 NNO 1006,2 37 0,0
03.08.2020 07:00:00 10,8 8,7 0 0 4 2 N 1006,8 30 0,0
03.08.2020 06:00:00 5,8 5,7 0 0 3 2 N 1007,4 30 0,0
03.08.2020 05:00:00 1,2 1,1 0 0 7 4 N 1008,0 5 0,0
03.08.2020 04:00:00 -0,4 -0,5 2 1 5 3 ZW 1008,5 0,7 0,0
03.08.2020 03:00:00 -0,3 -0,6 0 0 6 3 N 1008,8 1,0 0,0
03.08.2020 02:00:00 0,7 0,4 0 0 5 3 N 1009,1 0,1 0,0
03.08.2020 01:00:00 1,4 0,8 3 1 5 3 ZW 1009,3 13 0,0
03.08.2020 00:00:00 2,9 2,3 0 0 3 2 N 1009,4 14 0,0
02.08.2020 23:00:00 4,9 4,2 2 1 4 2 WZW 1009,2 15 0,0
02.08.2020 22:00:00 7,6 6,4 0 0 5 3 N 1009,2 8 0,0
02.08.2020 21:00:00 10,8 7,7 4 2 11 6 O 1009,0 28 0,0
02.08.2020 20:00:00 15,1 7,1 5 3 16 9 ONO 1008,9 46 0,0
02.08.2020 19:00:00 15,9 7,6 5 3 16 9 O 1009,1 35 0,0
02.08.2020 18:00:00 16,5 6,0 8 4 20 11 ONO 1009,3 38 0,0
02.08.2020 17:00:00 16,8 5,1 9 5 17 9 ONO 1009,6 38 0,0
02.08.2020 16:00:00 16,5 6,9 12 6 18 10 ONO 1009,9 35 0,0
02.08.2020 15:00:00 15,8 6,5 12 7 21 11 NO 1010,5 43 0,0
02.08.2020 14:00:00 16,1 6,0 13 7 23 12 ONO 1010,7 47 0,0
02.08.2020 13:00:00 15,4 5,9 14 8 22 12 ONO 1011,1 16 0,0
02.08.2020 12:00:00 14,7 7,5 11 6 17 9 NO 1011,5 49 0,0
02.08.2020 11:00:00 14,1 8,5 8 5 16 9 O 1011,9 43 0,0
02.08.2020 10:00:00 14,2 9,4 9 5 20 11 NO 1012,3 17 0,0
02.08.2020 09:00:00 13,0 9,3 13 7 21 11 NO 1012,4 28 0,0
02.08.2020 08:00:00 12,5 9,9 9 5 18 10 NO 1012,5 31 0,0
02.08.2020 07:00:00 11,6 9,5 13 7 20 11 NO 1012,8 42 0,0
02.08.2020 06:00:00 11,3 9,2 9 5 14 8 NNO 1012,8 40 0,0
02.08.2020 05:00:00 11,0 9,1 6 3 13 7 NNO 1012,9 42 0,0
02.08.2020 04:00:00 10,1 9,5 8 4 13 7 NO 1013,3 43 0,0
02.08.2020 03:00:00 4,7 4,6 4 2 7 4 WZW 1013,8 20 0,0
02.08.2020 02:00:00 4,9 4,6 4 2 8 4 N 1013,8 15 0,0
02.08.2020 01:00:00 6,5 6,4 2 1 4 2 NW 1014,0 16 0,0
02.08.2020 00:00:00 8,9 8,8 4 2 5 3 NNO 1013,7 6 0,0
01.08.2020 23:00:00 11,0 10,7 3 2 4 2 N 1013,5 0,2 0,0

tt = temperatuur
td = dauwpunt
ff = windsnelheid
fx = windstoten
dd = windrichting
ppp = luchtdruk
vv = zicht
rr = neerslag

Weerstations in de omgeving